FW0554 Weather Reports


time (UTC)temp
F
wind
direction
speed
knots
gust
knots
rain 1hr
in
rain 24hr
in
rain mn
in
humidity
%
barometer
mb
20260505093854 55 243 0.0 0.0 0.00 0.00 0.00 78 1003.3
20260505092852 56 242 0.0 0.0 0.00 0.00 0.00 77 1003.3
20260505092327 56 242 0.0 0.0 0.00 0.00 0.00 76 1003.2
20260505090851 57 243 0.0 0.0 0.00 0.00 0.00 75 1003.3
20260505085848 57 243 0.0 0.0 0.00 0.00 0.00 75 1003.3
20260505084850 57 243 0.0 0.0 0.00 0.00 0.00 74 1003.2
20260505083847 58 242 0.0 0.0 0.00 0.00 0.00 73 1003.2
20260505082847 58 242 0.0 0.0 0.00 0.00 0.00 73 1003.0
20260505081846 58 243 0.0 0.0 0.00 0.00 0.00 72 1003.0
20260505080846 59 243 0.0 0.0 0.00 0.00 0.00 71 1002.9
20260505075842 59 243 0.0 0.0 0.00 0.00 0.00 71 1003.0
20260505074840 59 258 0.0 1.7 0.00 0.00 0.00 71 1002.9
20260505073840 60 260 0.0 3.5 0.00 0.00 0.00 70 1002.8
20260505072836 60 253 0.0 4.3 0.00 0.00 0.00 70 1002.7
20260505071836 60 259 0.0 2.6 0.00 0.00 0.00 70 1002.8
20260505070836 60 257 0.0 2.6 0.00 0.00 0.00 69 1002.6
20260505070317 60 220 0.0 0.9 0.00 0.00 0.00 69 1002.7
20260505064837 61 218 0.0 2.6 0.00 0.00 0.00 68 1002.7
20260505064317 61 227 0.9 4.3 0.00 0.00 0.00 68 1002.7
20260505062834 61 243 0.9 6.1 0.00 0.00 0.00 68 1002.6
20260505061836 61 250 0.0 3.5 0.00 0.00 0.00 67 1002.5
20260505060832 62 255 0.9 4.3 0.00 0.00 0.00 67 1002.5
20260505055832 62 256 0.9 4.3 0.00 0.00 0.00 66 1002.6
20260505054830 62 270 0.9 6.1 0.00 0.00 0.00 66 1002.5
20260505053830 62 252 0.9 8.7 0.00 0.00 0.00 66 1002.6
20260505052828 62 280 1.7 7.0 0.00 0.00 0.00 66 1002.7
20260505051829 63 241 0.9 4.3 0.00 0.00 0.00 65 1002.7
20260505050827 63 268 0.9 5.2 0.00 0.00 0.00 65 1002.9
20260505040828 65 274 1.7 7.8 0.00 0.00 0.00 62 1002.8
20260505040311 65 236 0.9 7.0 0.00 0.00 0.00 62 1002.6
20260505034824 65 255 1.7 6.1 0.00 0.00 0.00 62 1002.8
20260505033822 65 256 0.9 7.0 0.00 0.00 0.00 61 1002.8
20260505032822 66 222 0.9 6.1 0.00 0.00 0.00 60 1002.9
20260505032311 66 236 0.9 5.2 0.00 0.00 0.00 60 1002.7
20260505030822 67 249 2.6 8.7 0.00 0.00 0.00 59 1002.8
20260505025822 67 249 2.6 7.8 0.00 0.00 0.00 59 1002.7
20260505024823 67 231 1.7 8.7 0.00 0.00 0.00 58 1002.7
20260505023822 68 250 2.6 10.4 0.00 0.00 0.00 57 1002.5
20260505022821 68 250 1.7 10.4 0.00 0.00 0.00 55 1002.6
20260505021821 69 263 2.6 7.0 0.00 0.00 0.00 53 1002.5
20260505020819 69 206 1.7 8.7 0.00 0.00 0.00 49 1002.5
20260505015820 69 156 1.7 10.4 0.00 0.00 0.00 45 1002.3
20260505014819 70 196 1.7 6.1 0.00 0.00 0.00 43 1002.2
20260505013818 70 243 1.7 7.0 0.00 0.00 0.00 42 1002.1
20260505013257 71 271 1.7 8.7 0.00 0.00 0.00 42 1001.8
20260505011817 71 226 0.9 7.0 0.00 0.00 0.00 42 1001.8
20260505010816 71 298 1.7 6.1 0.00 0.00 0.00 41 1001.6
20260505005816 71 228 1.7 7.0 0.00 0.00 0.00 41 1001.3
20260505004816 72 261 0.9 5.2 0.00 0.00 0.00 40 1001.2
20260505003814 72 253 0.9 5.2 0.00 0.00 0.00 39 1001.0
20260505002813 73 168 0.0 3.5 0.00 0.00 0.00 38 1001.1
20260505001813 73 253 0.9 5.2 0.00 0.00 0.00 37 1001.1
20260505000813 74 218 0.9 5.2 0.00 0.00 0.00 36 1001.1
20260504235813 75 254 0.9 4.3 0.00 0.00 0.00 35 1001.0
20260504234813 76 189 0.9 7.0 0.00 0.00 0.00 34 1000.9
20260504234250 76 246 0.9 4.3 0.00 0.00 0.00 33 1000.7
20260504232814 77 239 0.9 5.2 0.00 0.00 0.00 30 1000.6
20260504231824 77 226 0.9 6.1 0.00 0.00 0.00 30 1000.6
20260504230813 78 233 0.0 3.5 0.00 0.00 0.00 30 1000.6
20260504225811 78 278 0.0 4.3 0.00 0.00 0.00 30 1000.4
20260504225732 78 265 1.7 5.2 0.00 0.00 0.00 29 1000.4
20260504223809 79 282 1.7 7.8 0.00 0.00 0.00 29 1000.4
20260504222809 79 277 1.7 7.8 0.00 0.00 0.00 29 1000.5
20260504222252 79 258 1.7 7.8 0.00 0.00 0.00 29 1000.7
20260504221249 80 265 1.7 6.1 0.00 0.00 0.00 29 1000.7
20260504215808 80 276 2.6 7.8 0.00 0.00 0.00 28 1000.6
20260504214808 80 276 3.5 10.4 0.00 0.00 0.00 28 1000.7
20260504213807 80 246 2.6 7.8 0.00 0.00 0.00 29 1000.7
20260504212809 80 197 2.6 9.6 0.00 0.00 0.00 28 1000.7
20260504211806 81 292 1.7 7.0 0.00 0.00 0.00 29 1000.7
20260504210806 82 303 1.7 10.4 0.00 0.00 0.00 29 1000.8
20260504205803 82 265 2.6 8.7 0.00 0.00 0.00 28 1000.7
20260504204804 81 256 0.9 5.2 0.00 0.00 0.00 29 1000.8
20260504203809 81 341 2.6 8.7 0.00 0.00 0.00 28 1000.8
20260504202807 81 311 1.7 7.8 0.00 0.00 0.00 27 1000.9
20260504202251 82 343 1.7 6.1 0.00 0.00 0.00 29 1001.2
20260504201240 82 308 1.7 7.0 0.00 0.00 0.00 29 1001.3
20260504195801 82 258 2.6 7.8 0.00 0.00 0.00 28 1001.3
20260504194802 81 346 1.7 8.7 0.00 0.00 0.00 28 1001.4
20260504194732 82 266 1.7 6.1 0.00 0.00 0.00 28 1001.5
20260504192800 82 334 1.7 7.0 0.00 0.00 0.00 29 1001.5
20260504192700 81 277 0.9 7.8 0.00 0.00 0.00 30 1001.7
20260504191951 81 262 2.6 9.6 0.00 0.00 0.00 28 1001.5
20260504185800 81 280 1.7 7.8 0.00 0.00 0.00 29 1001.7
20260504184759 80 318 1.7 7.8 0.00 0.00 0.00 28 1002.0
20260504183800 80 335 2.6 7.0 0.00 0.00 0.00 28 1002.4
20260504182801 80 322 3.5 10.4 0.00 0.00 0.00 29 1002.3
20260504182242 80 262 1.7 6.1 0.00 0.00 0.00 30 1002.3
20260504180800 79 222 2.6 10.4 0.00 0.00 0.00 33 1002.4
20260504175800 78 213 0.9 8.7 0.00 0.00 0.00 32 1002.6
20260504174800 79 266 1.7 7.8 0.00 0.00 0.00 36 1002.8
20260504173759 78 220 1.7 7.0 0.00 0.00 0.00 35 1002.7
20260504172800 78 301 0.9 6.1 0.00 0.00 0.00 35 1002.9
20260504171759 78 305 1.7 8.7 0.00 0.00 0.00 35 1003.2
20260504170800 78 290 3.5 8.7 0.00 0.00 0.00 35 1003.4
20260504150756 71 218 2.6 7.0 0.00 0.00 0.00 48 1004.1
20260504140755 68 286 0.9 4.3 0.00 0.00 0.00 56 1004.4
20260504140232 67 258 2.6 5.2 0.00 0.00 0.00 57 1004.5
20260504130754 62 257 1.7 6.1 0.00 0.00 0.00 66 1004.5
20260504110228 50 268 0.9 4.3 0.00 0.00 0.00 88 1004.5